| time (UTC) | temp F | wind direction | speed knots | gust knots | rain 1hr in | rain 24hr in | rain mn in | humidity % | barometer mb |
| 20260507033414 | 75 | 41 | 1.7 | 4.3 | 0.00 | 0.00 | 0.00 | 87 | 1016.3 |
| 20260507032911 | 75 | 133 | 2.6 | 4.3 | 0.00 | 0.00 | 0.00 | 87 | 1016.1 |
| 20260507032408 | 75 | 222 | 4.3 | 7.8 | 0.00 | 0.00 | 0.00 | 87 | 1016.4 |
| 20260507031904 | 75 | 180 | 0.9 | 5.2 | 0.00 | 0.00 | 0.00 | 86 | 1016.3 |
| 20260507031401 | 75 | 138 | 2.6 | 6.1 | 0.00 | 0.00 | 0.00 | 86 | 1016.1 |
| 20260507030857 | 75 | 71 | 0.0 | 7.8 | 0.00 | 0.00 | 0.00 | 86 | 1015.8 |
| 20260507030355 | 75 | 140 | 1.7 | 4.3 | 0.00 | 0.00 | 0.00 | 86 | 1015.9 |
| 20260507025851 | 75 | 242 | 0.0 | 7.0 | 0.00 | 0.00 | 0.00 | 86 | 1016.0 |
| 20260507025349 | 75 | 261 | 2.6 | 6.1 | 0.00 | 0.00 | 0.00 | 86 | 1016.4 |
| 20260507024846 | 75 | 110 | 1.7 | 5.2 | 0.00 | 0.00 | 0.00 | 85 | 1016.2 |
| 20260507024343 | 75 | 209 | 4.3 | 7.0 | 0.00 | 0.00 | 0.00 | 85 | 1016.3 |
| 20260507023839 | 74 | 106 | 1.7 | 4.3 | 0.00 | 0.00 | 0.00 | 85 | 1016.3 |
| 20260507023336 | 74 | 239 | 1.7 | 6.1 | 0.00 | 0.00 | 0.00 | 85 | 1015.8 |
| 20260507022834 | 74 | 85 | 1.7 | 5.2 | 0.00 | 0.00 | 0.00 | 85 | 1015.9 |
| 20260507022330 | 74 | 121 | 7.0 | 7.0 | 0.00 | 0.00 | 0.00 | 85 | 1015.9 |
| 20260507021826 | 74 | 105 | 1.7 | 5.2 | 0.00 | 0.00 | 0.00 | 85 | 1016.0 |
| 20260507021322 | 74 | 225 | 0.0 | 3.5 | 0.00 | 0.00 | 0.00 | 85 | 1016.1 |
| 20260507020820 | 74 | 270 | 1.7 | 3.5 | 0.00 | 0.00 | 0.00 | 85 | 1016.2 |
| 20260507020316 | 74 | 48 | 3.5 | 3.5 | 0.00 | 0.00 | 0.00 | 84 | 1016.3 |
| 20260507015813 | 74 | 152 | 2.6 | 4.3 | 0.00 | 0.00 | 0.00 | 84 | 1016.8 |
| 20260507015311 | 74 | 225 | 1.7 | 4.3 | 0.00 | 0.00 | 0.00 | 84 | 1016.5 |
| 20260507014808 | 74 | 206 | 1.7 | 4.3 | 0.00 | 0.00 | 0.00 | 83 | 1016.3 |
| 20260507014304 | 74 | 64 | 3.5 | 4.3 | 0.00 | 0.00 | 0.00 | 83 | 1016.8 |
| 20260507013800 | 74 | 83 | 0.9 | 2.6 | 0.00 | 0.00 | 0.00 | 83 | 1017.1 |
| 20260507013258 | 74 | 109 | 0.9 | 4.3 | 0.00 | 0.00 | 0.00 | 83 | 1016.5 |
| 20260507012755 | 74 | 90 | 2.6 | 2.6 | 0.00 | 0.00 | 0.00 | 83 | 1016.5 |
| 20260507012250 | 74 | 192 | 0.9 | 5.2 | 0.00 | 0.00 | 0.00 | 83 | 1016.7 |
| 20260507011749 | 74 | 328 | 1.7 | 6.1 | 0.00 | 0.00 | 0.00 | 83 | 1016.6 |
| 20260507011245 | 74 | 195 | 0.0 | 5.2 | 0.00 | 0.00 | 0.00 | 82 | 1016.7 |
| 20260507010744 | 74 | 257 | 0.0 | 4.3 | 0.00 | 0.00 | 0.00 | 82 | 1016.7 |
| 20260507010241 | 74 | 159 | 1.7 | 4.3 | 0.00 | 0.00 | 0.00 | 83 | 1016.7 |
| 20260507005738 | 74 | 221 | 1.7 | 4.3 | 0.00 | 0.00 | 0.00 | 83 | 1017.0 |
| 20260507005234 | 74 | 175 | 1.7 | 5.2 | 0.00 | 0.00 | 0.00 | 83 | 1016.8 |
| 20260507004731 | 74 | 223 | 3.5 | 5.2 | 0.00 | 0.00 | 0.00 | 82 | 1016.8 |
| 20260507004229 | 74 | 69 | 0.9 | 5.2 | 0.00 | 0.00 | 0.00 | 82 | 1016.5 |
| 20260507003725 | 74 | 93 | 2.6 | 6.1 | 0.00 | 0.00 | 0.00 | 82 | 1016.8 |
| 20260507003220 | 74 | 28 | 0.0 | 3.5 | 0.00 | 0.00 | 0.00 | 82 | 1016.5 |
| 20260507002717 | 74 | 270 | 0.9 | 6.1 | 0.00 | 0.00 | 0.00 | 81 | 1016.5 |
| 20260507002213 | 74 | 228 | 6.1 | 6.1 | 0.00 | 0.00 | 0.00 | 81 | 1016.6 |
| 20260507001709 | 75 | 117 | 0.0 | 6.1 | 0.00 | 0.00 | 0.00 | 80 | 1016.7 |
| 20260507001207 | 75 | 90 | 3.5 | 7.0 | 0.00 | 0.00 | 0.00 | 80 | 1016.5 |
| 20260507000703 | 75 | 266 | 4.3 | 7.8 | 0.00 | 0.00 | 0.00 | 79 | 1016.5 |
| 20260507000159 | 75 | 237 | 1.7 | 6.1 | 0.00 | 0.00 | 0.00 | 79 | 1016.7 |
| 20260506235656 | 75 | 200 | 0.0 | 7.0 | 0.00 | 0.00 | 0.00 | 79 | 1016.7 |
| 20260506235151 | 75 | 186 | 0.0 | 7.8 | 0.00 | 0.00 | 0.00 | 79 | 1016.8 |
| 20260506234648 | 75 | 270 | 0.9 | 4.3 | 0.00 | 0.00 | 0.00 | 78 | 1016.8 |
| 20260506234145 | 75 | 225 | 4.3 | 5.2 | 0.00 | 0.00 | 0.00 | 78 | 1016.7 |
| 20260506233643 | 75 | 260 | 1.7 | 5.2 | 0.00 | 0.00 | 0.00 | 77 | 1016.7 |
| 20260506233139 | 75 | 226 | 3.5 | 5.2 | 0.00 | 0.00 | 0.00 | 76 | 1016.6 |
| 20260506232636 | 76 | 212 | 1.7 | 4.3 | 0.00 | 0.00 | 0.00 | 76 | 1016.3 |
| 20260506232131 | 76 | 87 | 2.6 | 5.2 | 0.00 | 0.00 | 0.00 | 75 | 1016.4 |
| 20260506231628 | 76 | 20 | 0.0 | 4.3 | 0.00 | 0.00 | 0.00 | 75 | 1016.6 |
| 20260506231127 | 77 | 102 | 1.7 | 4.3 | 0.00 | 0.00 | 0.00 | 74 | 1016.8 |
| 20260506230623 | 77 | 194 | 0.9 | 2.6 | 0.00 | 0.00 | 0.00 | 74 | 1017.0 |
| 20260506230121 | 77 | 246 | 0.0 | 4.3 | 0.00 | 0.00 | 0.00 | 74 | 1016.8 |
| 20260506225617 | 77 | 300 | 0.0 | 4.3 | 0.00 | 0.00 | 0.00 | 73 | 1016.7 |
| 20260506225113 | 77 | 282 | 1.7 | 4.3 | 0.00 | 0.00 | 0.00 | 72 | 1016.8 |
| 20260506224610 | 77 | 254 | 1.7 | 5.2 | 0.00 | 0.00 | 0.00 | 72 | 1016.8 |
| 20260506224107 | 78 | 110 | 0.0 | 8.7 | 0.00 | 0.00 | 0.00 | 71 | 1016.8 |
| 20260506223603 | 78 | 248 | 1.7 | 4.3 | 0.00 | 0.00 | 0.00 | 71 | 1016.8 |
| 20260506223059 | 78 | 216 | 2.6 | 4.3 | 0.00 | 0.00 | 0.00 | 70 | 1016.6 |
| 20260506222556 | 78 | 21 | 4.3 | 5.2 | 0.00 | 0.00 | 0.00 | 69 | 1016.7 |
| 20260506222052 | 79 | 264 | 0.0 | 3.5 | 0.00 | 0.00 | 0.00 | 70 | 1016.6 |
| 20260506221550 | 79 | 90 | 0.0 | 5.2 | 0.00 | 0.00 | 0.00 | 69 | 1016.5 |
| 20260506221048 | 80 | 68 | 1.7 | 7.8 | 0.00 | 0.00 | 0.00 | 68 | 1016.3 |
| 20260506220544 | 80 | 234 | 0.9 | 5.2 | 0.00 | 0.00 | 0.00 | 68 | 1016.4 |
| 20260506220039 | 81 | 65 | 4.3 | 5.2 | 0.00 | 0.00 | 0.00 | 67 | 1016.4 |
| 20260506215537 | 81 | 116 | 2.6 | 9.6 | 0.00 | 0.00 | 0.00 | 67 | 1016.2 |
| 20260506215032 | 81 | 229 | 5.2 | 11.3 | 0.00 | 0.00 | 0.00 | 66 | 1016.4 |
| 20260506214529 | 82 | 257 | 1.7 | 6.1 | 0.00 | 0.00 | 0.00 | 65 | 1016.3 |
| 20260506214026 | 81 | 253 | 6.1 | 7.0 | 0.00 | 0.00 | 0.00 | 65 | 1016.6 |
| 20260506213525 | 81 | 66 | 0.0 | 7.8 | 0.00 | 0.00 | 0.00 | 65 | 1016.8 |
| 20260506213021 | 81 | 28 | 0.0 | 9.6 | 0.00 | 0.00 | 0.00 | 65 | 1016.5 |
| 20260506212518 | 82 | 165 | 0.0 | 7.0 | 0.00 | 0.00 | 0.00 | 64 | 1016.6 |
| 20260506212013 | 82 | 139 | 1.7 | 6.1 | 0.00 | 0.00 | 0.00 | 65 | 1016.5 |
| 20260506211509 | 82 | 110 | 6.1 | 6.1 | 0.00 | 0.00 | 0.00 | 65 | 1016.8 |
| 20260506211007 | 82 | 235 | 2.6 | 5.2 | 0.00 | 0.00 | 0.00 | 64 | 1016.7 |
| 20260506210502 | 83 | 185 | 1.7 | 5.2 | 0.00 | 0.00 | 0.00 | 65 | 1016.7 |
| 20260506205954 | 82 | 83 | 0.9 | 5.2 | 0.00 | 0.00 | 0.00 | 66 | 1016.7 |
| 20260506205450 | 82 | 84 | 4.3 | 12.2 | 0.00 | 0.00 | 0.00 | 65 | 1016.6 |
| 20260506204946 | 82 | 124 | 2.6 | 8.7 | 0.00 | 0.00 | 0.00 | 66 | 1016.6 |
| 20260506204444 | 83 | 56 | 5.2 | 7.0 | 0.00 | 0.00 | 0.00 | 65 | 1016.7 |
| 20260506203941 | 83 | 130 | 3.5 | 6.1 | 0.00 | 0.00 | 0.00 | 65 | 1016.8 |
| 20260506203438 | 84 | 111 | 3.5 | 7.0 | 0.00 | 0.00 | 0.00 | 64 | 1016.9 |
| 20260506202935 | 84 | 99 | 0.0 | 6.1 | 0.00 | 0.00 | 0.00 | 63 | 1016.8 |
| 20260506202432 | 84 | 252 | 3.5 | 5.2 | 0.00 | 0.00 | 0.00 | 64 | 1016.8 |
| 20260506201928 | 83 | 48 | 1.7 | 11.3 | 0.00 | 0.00 | 0.00 | 65 | 1016.9 |
| 20260506201426 | 83 | 106 | 5.2 | 8.7 | 0.00 | 0.00 | 0.00 | 64 | 1016.9 |
| 20260506200923 | 82 | 82 | 0.0 | 7.0 | 0.00 | 0.00 | 0.00 | 68 | 1017.0 |
| 20260506200419 | 83 | 278 | 0.9 | 8.7 | 0.00 | 0.00 | 0.00 | 67 | 1017.2 |
| 20260506195916 | 82 | 146 | 1.7 | 13.0 | 0.00 | 0.00 | 0.00 | 68 | 1017.1 |
| 20260506195413 | 84 | 73 | 1.7 | 7.0 | 0.00 | 0.00 | 0.00 | 68 | 1017.1 |
| 20260506194909 | 83 | 75 | 4.3 | 10.4 | 0.00 | 0.00 | 0.00 | 67 | 1017.1 |
| 20260506194406 | 84 | 18 | 0.0 | 3.5 | 0.00 | 0.00 | 0.00 | 66 | 1017.0 |
| 20260506193903 | 84 | 100 | 7.0 | 8.7 | 0.00 | 0.00 | 0.00 | 64 | 1017.2 |
| 20260506193400 | 84 | 236 | 0.0 | 3.5 | 0.00 | 0.00 | 0.00 | 65 | 1017.2 |
| 20260506192856 | 84 | 101 | 0.0 | 11.3 | 0.00 | 0.00 | 0.00 | 66 | 1017.4 |
| 20260506192353 | 84 | 197 | 1.7 | 7.8 | 0.00 | 0.00 | 0.00 | 64 | 1017.2 |
| 20260506191851 | 82 | 90 | 2.6 | 13.0 | 0.00 | 0.00 | 0.00 | 67 | 1017.3 |
| 20260506191347 | 83 | 135 | 5.2 | 11.3 | 0.00 | 0.00 | 0.00 | 66 | 1017.4 |
| 20260506190844 | 83 | 134 | 5.2 | 9.6 | 0.00 | 0.00 | 0.00 | 67 | 1017.5 |
| 20260506190340 | 85 | 283 | 3.5 | 7.0 | 0.00 | 0.00 | 0.00 | 66 | 1017.7 |
| 20260506185837 | 84 | 97 | 8.7 | 8.7 | 0.00 | 0.00 | 0.00 | 66 | 1017.7 |
| 20260506185334 | 83 | 57 | 0.0 | 10.4 | 0.00 | 0.00 | 0.00 | 70 | 1017.8 |
| 20260506184831 | 83 | 115 | 6.1 | 10.4 | 0.00 | 0.00 | 0.00 | 68 | 1017.9 |
| 20260506184328 | 84 | 264 | 1.7 | 5.2 | 0.00 | 0.00 | 0.00 | 68 | 1018.1 |
| 20260506183826 | 83 | 63 | 0.9 | 5.2 | 0.00 | 0.00 | 0.00 | 69 | 1018.2 |
| 20260506183320 | 84 | 90 | 2.6 | 3.5 | 0.00 | 0.00 | 0.00 | 67 | 1018.4 |
| 20260506182818 | 85 | 195 | 0.0 | 3.5 | 0.00 | 0.00 | 0.00 | 64 | 1018.4 |
| 20260506182315 | 86 | 180 | 0.9 | 5.2 | 0.00 | 0.00 | 0.00 | 63 | 1018.5 |
| 20260506181813 | 85 | 205 | 6.1 | 6.1 | 0.00 | 0.00 | 0.00 | 65 | 1018.4 |
| 20260506181311 | 85 | 53 | 2.6 | 4.3 | 0.00 | 0.00 | 0.00 | 67 | 1018.4 |
| 20260506180808 | 84 | 15 | 0.0 | 4.3 | 0.00 | 0.00 | 0.00 | 63 | 1018.4 |
| 20260506180303 | 87 | 105 | 0.9 | 2.6 | 0.00 | 0.00 | 0.00 | 62 | 1018.5 |
| 20260506175800 | 86 | 18 | 0.0 | 5.2 | 0.00 | 0.00 | 0.00 | 59 | 1018.5 |
| 20260506175257 | 85 | 323 | 1.7 | 4.3 | 0.00 | 0.00 | 0.00 | 64 | 1018.7 |
| 20260506174754 | 84 | 94 | 2.6 | 5.2 | 0.00 | 0.00 | 0.00 | 64 | 1018.6 |
| 20260506174251 | 83 | 144 | 0.0 | 2.6 | 0.00 | 0.00 | 0.00 | 65 | 1018.7 |
| 20260506173749 | 82 | 169 | 1.7 | 7.8 | 0.00 | 0.00 | 0.00 | 65 | 1018.9 |
| 20260506173246 | 84 | 291 | 0.0 | 3.5 | 0.00 | 0.00 | 0.00 | 67 | 1019.0 |
| 20260506172742 | 82 | 192 | 0.9 | 5.2 | 0.00 | 0.00 | 0.00 | 68 | 1019.0 |
| 20260506172239 | 83 | 26 | 0.0 | 5.2 | 0.00 | 0.00 | 0.00 | 66 | 1018.9 |
| 20260506171737 | 83 | 106 | 1.7 | 3.5 | 0.00 | 0.00 | 0.00 | 66 | 1019.1 |
| 20260506171234 | 83 | 101 | 1.7 | 3.5 | 0.00 | 0.00 | 0.00 | 67 | 1019.0 |
| 20260506170731 | 84 | 208 | 3.5 | 7.8 | 0.00 | 0.00 | 0.00 | 64 | 1019.0 |
| 20260506170228 | 84 | 235 | 0.0 | 3.5 | 0.00 | 0.00 | 0.00 | 64 | 1019.3 |
| 20260506165726 | 84 | 228 | 1.7 | 6.1 | 0.00 | 0.00 | 0.00 | 63 | 1019.1 |
| 20260506165223 | 83 | 270 | 0.9 | 4.3 | 0.00 | 0.00 | 0.00 | 65 | 1019.1 |
| 20260506164720 | 84 | 225 | 1.7 | 6.1 | 0.00 | 0.00 | 0.00 | 63 | 1019.2 |
| 20260506164217 | 85 | 83 | 0.0 | 5.2 | 0.00 | 0.00 | 0.00 | 63 | 1019.3 |
| 20260506163714 | 85 | 202 | 2.6 | 2.6 | 0.00 | 0.00 | 0.00 | 63 | 1019.1 |
| 20260506163208 | 84 | 249 | 0.0 | 6.1 | 0.00 | 0.00 | 0.00 | 62 | 1019.1 |
| 20260506162705 | 85 | 0 | 0.0 | 1.7 | 0.00 | 0.00 | 0.00 | 63 | 1019.1 |
| 20260506162202 | 84 | 262 | 0.9 | 2.6 | 0.00 | 0.00 | 0.00 | 64 | 1019.2 |
| 20260506161659 | 84 | 279 | 0.0 | 4.3 | 0.00 | 0.00 | 0.00 | 64 | 1019.2 |
| 20260506161156 | 82 | 26 | 0.9 | 3.5 | 0.00 | 0.00 | 0.00 | 65 | 1019.4 |
| 20260506160654 | 82 | 157 | 0.0 | 5.2 | 0.00 | 0.00 | 0.00 | 65 | 1019.5 |
| 20260506160151 | 81 | 167 | 3.5 | 3.5 | 0.00 | 0.00 | 0.00 | 67 | 1019.6 |
| 20260506155649 | 81 | 180 | 0.9 | 7.0 | 0.00 | 0.00 | 0.00 | 66 | 1019.5 |
| 20260506155146 | 81 | 240 | 2.6 | 7.0 | 0.00 | 0.00 | 0.00 | 66 | 1019.5 |
| 20260506153248 | 84 | 357 | 0.0 | 3.5 | 0.00 | 0.00 | 0.00 | 61 | 1019.7 |
| 20260506152745 | 84 | 307 | 2.6 | 3.5 | 0.00 | 0.00 | 0.00 | 62 | 1019.5 |
| 20260506152242 | 82 | 198 | 1.7 | 3.5 | 0.00 | 0.00 | 0.00 | 63 | 1019.5 |
| 20260506151741 | 82 | 264 | 2.6 | 2.6 | 0.00 | 0.00 | 0.00 | 62 | 1019.5 |
| 20260506151237 | 81 | 255 | 0.9 | 7.0 | 0.00 | 0.00 | 0.00 | 63 | 1019.7 |
| 20260506150734 | 82 | 239 | 1.7 | 4.3 | 0.00 | 0.00 | 0.00 | 61 | 1019.6 |
| 20260506150231 | 82 | 214 | 1.7 | 6.1 | 0.00 | 0.00 | 0.00 | 61 | 1019.7 |
| 20260506145728 | 81 | 144 | 1.7 | 5.2 | 0.00 | 0.00 | 0.00 | 61 | 1019.5 |
| 20260506145224 | 81 | 201 | 5.2 | 5.2 | 0.00 | 0.00 | 0.00 | 61 | 1019.7 |
| 20260506144722 | 80 | 90 | 0.0 | 7.0 | 0.00 | 0.00 | 0.00 | 63 | 1019.4 |
| 20260506144219 | 82 | 125 | 1.7 | 3.5 | 0.00 | 0.00 | 0.00 | 60 | 1019.6 |
| 20260506143716 | 82 | 220 | 7.8 | 9.6 | 0.00 | 0.00 | 0.00 | 58 | 1019.3 |
| 20260506143214 | 82 | 315 | 3.5 | 4.3 | 0.00 | 0.00 | 0.00 | 61 | 1019.3 |
| 20260506142712 | 81 | 257 | 2.6 | 5.2 | 0.00 | 0.00 | 0.00 | 64 | 1019.1 |
| 20260506142210 | 79 | 98 | 0.0 | 5.2 | 0.00 | 0.00 | 0.00 | 64 | 1019.2 |
| 20260506141708 | 80 | 209 | 6.1 | 6.1 | 0.00 | 0.00 | 0.00 | 63 | 1019.3 |
| 20260506141206 | 80 | 203 | 0.9 | 4.3 | 0.00 | 0.00 | 0.00 | 64 | 1019.3 |
| 20260506140703 | 78 | 124 | 0.0 | 3.5 | 0.00 | 0.00 | 0.00 | 66 | 1019.3 |
| 20260506140200 | 80 | 263 | 0.9 | 2.6 | 0.00 | 0.00 | 0.00 | 66 | 1019.5 |
| 20260506135657 | 79 | 216 | 1.7 | 2.6 | 0.00 | 0.00 | 0.00 | 66 | 1019.3 |
| 20260506135153 | 78 | 243 | 1.7 | 5.2 | 0.00 | 0.00 | 0.00 | 68 | 1019.2 |
| 20260506134650 | 78 | 251 | 1.7 | 6.1 | 0.00 | 0.00 | 0.00 | 67 | 1019.0 |
| 20260506134146 | 77 | 220 | 2.6 | 7.0 | 0.00 | 0.00 | 0.00 | 69 | 1019.2 |
| 20260506133643 | 77 | 99 | 1.7 | 3.5 | 0.00 | 0.00 | 0.00 | 70 | 1019.1 |
| 20260506133140 | 77 | 245 | 4.3 | 6.1 | 0.00 | 0.00 | 0.00 | 69 | 1019.1 |
| 20260506132637 | 78 | 65 | 1.7 | 5.2 | 0.00 | 0.00 | 0.00 | 69 | 1019.2 |
| 20260506132134 | 77 | 209 | 4.3 | 5.2 | 0.00 | 0.00 | 0.00 | 70 | 1019.3 |
| 20260506131631 | 77 | 210 | 2.6 | 2.6 | 0.00 | 0.00 | 0.00 | 72 | 1019.0 |
| 20260506131127 | 76 | 74 | 1.7 | 4.3 | 0.00 | 0.00 | 0.00 | 73 | 1019.1 |
| 20260506130624 | 76 | 162 | 1.7 | 5.2 | 0.00 | 0.00 | 0.00 | 74 | 1018.9 |
| 20260506130122 | 76 | 251 | 2.6 | 4.3 | 0.00 | 0.00 | 0.00 | 75 | 1019.1 |
| 20260506125620 | 77 | 337 | 0.9 | 1.7 | 0.00 | 0.00 | 0.00 | 76 | 1019.2 |
| 20260506125117 | 76 | 246 | 0.0 | 2.6 | 0.00 | 0.00 | 0.00 | 77 | 1019.0 |
| 20260506124615 | 75 | 60 | 0.0 | 3.5 | 0.00 | 0.00 | 0.00 | 78 | 1019.1 |
| 20260506124113 | 74 | 246 | 2.6 | 5.2 | 0.00 | 0.00 | 0.00 | 79 | 1018.9 |
| 20260506123610 | 74 | 159 | 0.0 | 2.6 | 0.00 | 0.00 | 0.00 | 80 | 1018.6 |
| 20260506123109 | 73 | 209 | 0.0 | 4.3 | 0.00 | 0.00 | 0.00 | 81 | 1018.8 |
| 20260506122605 | 72 | 234 | 0.9 | 3.5 | 0.00 | 0.00 | 0.00 | 83 | 1018.9 |
| 20260506122103 | 71 | 220 | 1.7 | 3.5 | 0.00 | 0.00 | 0.00 | 85 | 1019.0 |
| 20260506121600 | 71 | 90 | 0.0 | 2.6 | 0.00 | 0.00 | 0.00 | 86 | 1018.7 |
| 20260506121056 | 70 | 213 | 2.6 | 2.6 | 0.00 | 0.00 | 0.00 | 87 | 1018.8 |
| 20260506120555 | 70 | 210 | 2.6 | 2.6 | 0.00 | 0.00 | 0.00 | 87 | 1018.9 |
| 20260506120051 | 69 | 84 | 1.7 | 3.5 | 0.00 | 0.00 | 0.00 | 88 | 1018.9 |
| 20260506115549 | 69 | 233 | 1.7 | 1.7 | 0.00 | 0.00 | 0.00 | 89 | 1018.8 |
| 20260506115048 | 69 | 208 | 0.0 | 4.3 | 0.00 | 0.00 | 0.00 | 89 | 1018.8 |
| 20260506114545 | 68 | 180 | 0.0 | 1.7 | 0.00 | 0.00 | 0.00 | 91 | 1018.7 |
| 20260506114043 | 68 | 81 | 0.0 | 0.0 | 0.00 | 0.00 | 0.00 | 92 | 1018.8 |
| 20260506113541 | 67 | 6 | 0.0 | 0.9 | 0.00 | 0.00 | 0.00 | 93 | 1018.7 |
| 20260506113038 | 66 | 105 | 0.0 | 2.6 | 0.00 | 0.00 | 0.00 | 94 | 1018.8 |
| 20260506112534 | 66 | 99 | 0.0 | 1.7 | 0.00 | 0.00 | 0.00 | 94 | 1018.5 |
| 20260506112031 | 66 | 15 | 0.0 | 1.7 | 0.00 | 0.00 | 0.00 | 95 | 1018.5 |
| 20260506111530 | 65 | 96 | 1.7 | 2.6 | 0.00 | 0.00 | 0.00 | 95 | 1018.5 |
| 20260506111026 | 65 | 99 | 0.0 | 0.9 | 0.00 | 0.00 | 0.00 | 96 | 1018.6 |
| 20260506110524 | 64 | 270 | 0.0 | 0.0 | 0.00 | 0.00 | 0.00 | 96 | 1018.5 |
| 20260506110021 | 64 | 98 | 0.0 | 1.7 | 0.00 | 0.00 | 0.00 | 96 | 1018.3 |
| 20260506105517 | 63 | 90 | 0.0 | 0.0 | 0.00 | 0.00 | 0.00 | 95 | 1018.4 |
| 20260506105015 | 64 | 90 | 0.0 | 0.9 | 0.00 | 0.00 | 0.00 | 95 | 1018.7 |
| 20260506104513 | 63 | 90 | 0.0 | 0.0 | 0.00 | 0.00 | 0.00 | 95 | 1018.5 |
| 20260506104010 | 63 | 90 | 0.0 | 0.0 | 0.00 | 0.00 | 0.00 | 95 | 1018.5 |
| 20260506103507 | 64 | 63 | 1.7 | 1.7 | 0.00 | 0.00 | 0.00 | 95 | 1018.3 |
| 20260506103004 | 63 | 123 | 0.0 | 1.7 | 0.00 | 0.00 | 0.00 | 95 | 1018.3 |
| 20260506102502 | 63 | 84 | 0.0 | 0.0 | 0.00 | 0.00 | 0.00 | 95 | 1018.2 |
| 20260506101959 | 63 | 84 | 0.0 | 1.7 | 0.00 | 0.00 | 0.00 | 96 | 1018.2 |
| 20260506101455 | 63 | 60 | 0.9 | 1.7 | 0.00 | 0.00 | 0.00 | 96 | 1018.3 |
| 20260506100953 | 63 | 114 | 0.0 | 0.0 | 0.00 | 0.00 | 0.00 | 96 | 1018.3 |
| 20260506100451 | 63 | 98 | 0.0 | 0.0 | 0.00 | 0.00 | 0.00 | 96 | 1018.2 |
| 20260506095949 | 63 | 98 | 0.0 | 0.9 | 0.00 | 0.00 | 0.00 | 96 | 1018.1 |
| 20260506095447 | 63 | 81 | 0.0 | 0.0 | 0.00 | 0.00 | 0.00 | 96 | 1018.0 |
| 20260506094943 | 63 | 66 | 0.0 | 0.0 | 0.00 | 0.00 | 0.00 | 96 | 1018.0 |
| 20260506094442 | 62 | 66 | 0.0 | 0.9 | 0.00 | 0.00 | 0.00 | 96 | 1018.2 |
| 20260506093939 | 62 | 99 | 0.0 | 0.0 | 0.00 | 0.00 | 0.00 | 96 | 1018.0 |
| 20260506093437 | 62 | 106 | 0.0 | 0.0 | 0.00 | 0.00 | 0.00 | 95 | 1018.2 |
| 20260506092934 | 62 | 106 | 0.0 | 0.0 | 0.00 | 0.00 | 0.00 | 95 | 1018.2 |
| 20260506092432 | 62 | 106 | 0.0 | 0.0 | 0.00 | 0.00 | 0.00 | 95 | 1018.3 |
| 20260506091928 | 63 | 99 | 0.0 | 0.0 | 0.00 | 0.00 | 0.00 | 95 | 1018.2 |
| 20260506091427 | 63 | 90 | 0.0 | 0.0 | 0.00 | 0.00 | 0.00 | 95 | 1018.1 |
| 20260506090923 | 63 | 77 | 0.0 | 0.0 | 0.00 | 0.00 | 0.00 | 95 | 1018.3 |
| 20260506090421 | 63 | 82 | 0.0 | 0.0 | 0.00 | 0.00 | 0.00 | 95 | 1018.3 |
| 20260506085918 | 62 | 82 | 0.0 | 0.9 | 0.00 | 0.00 | 0.00 | 95 | 1018.2 |
| 20260506085414 | 62 | 270 | 0.0 | 0.0 | 0.00 | 0.00 | 0.00 | 94 | 1018.3 |
| 20260506084910 | 63 | 270 | 0.0 | 0.0 | 0.00 | 0.00 | 0.00 | 94 | 1018.4 |
| 20260506084408 | 63 | 270 | 0.0 | 0.0 | 0.00 | 0.00 | 0.00 | 94 | 1018.5 |
| 20260506083904 | 63 | 270 | 0.0 | 0.9 | 0.00 | 0.00 | 0.00 | 93 | 1018.5 |
| 20260506083401 | 63 | 261 | 0.0 | 0.9 | 0.00 | 0.00 | 0.00 | 92 | 1018.3 |
| 20260506082859 | 64 | 270 | 0.0 | 0.0 | 0.00 | 0.00 | 0.00 | 92 | 1018.3 |
| 20260506082355 | 64 | 270 | 0.0 | 0.0 | 0.00 | 0.00 | 0.00 | 91 | 1018.5 |
| 20260506081851 | 64 | 270 | 0.0 | 0.9 | 0.00 | 0.00 | 0.00 | 91 | 1018.4 |
| 20260506081350 | 65 | 82 | 0.0 | 0.0 | 0.00 | 0.00 | 0.00 | 90 | 1018.3 |
| 20260506080847 | 65 | 66 | 0.0 | 0.9 | 0.00 | 0.00 | 0.00 | 90 | 1018.3 |
| 20260506080343 | 65 | 66 | 0.0 | 0.9 | 0.00 | 0.00 | 0.00 | 89 | 1018.4 |
| 20260506073327 | 65 | 69 | 0.0 | 0.9 | 0.00 | 0.00 | 0.00 | 89 | 1018.3 |
| 20260506072824 | 65 | 270 | 0.0 | 0.9 | 0.00 | 0.00 | 0.00 | 89 | 1018.1 |
| 20260506072322 | 65 | 75 | 0.0 | 0.0 | 0.00 | 0.00 | 0.00 | 88 | 1018.0 |
| 20260506071819 | 65 | 60 | 0.0 | 1.7 | 0.00 | 0.00 | 0.00 | 88 | 1017.9 |
| 20260506071317 | 66 | 66 | 0.9 | 1.7 | 0.00 | 0.00 | 0.00 | 88 | 1018.0 |
| 20260506070814 | 65 | 90 | 0.0 | 2.6 | 0.00 | 0.00 | 0.00 | 89 | 1018.1 |
| 20260506070311 | 65 | 234 | 0.0 | 0.0 | 0.00 | 0.00 | 0.00 | 89 | 1018.1 |
| 20260506062248 | 65 | 0 | 0.0 | 0.9 | 0.00 | 0.00 | 0.00 | 92 | 1018.5 |
| 20260506061744 | 64 | 117 | 0.9 | 1.7 | 0.00 | 0.00 | 0.00 | 92 | 1018.3 |
| 20260506061241 | 64 | 82 | 0.0 | 0.9 | 0.00 | 0.00 | 0.00 | 92 | 1018.2 |
| 20260506060739 | 64 | 270 | 0.0 | 0.0 | 0.00 | 0.00 | 0.00 | 91 | 1018.3 |
| 20260506060237 | 64 | 263 | 0.9 | 0.9 | 0.00 | 0.00 | 0.00 | 90 | 1018.3 |
| 20260506051209 | 64 | 120 | 0.0 | 0.9 | 0.00 | 0.00 | 0.00 | 87 | 1019.0 |
| 20260506050707 | 65 | 98 | 0.0 | 0.9 | 0.00 | 0.00 | 0.00 | 87 | 1019.0 |
| 20260506050203 | 65 | 294 | 0.0 | 0.0 | 0.00 | 0.00 | 0.00 | 87 | 1019.0 |
| 20260506044655 | 65 | 0 | 0.0 | 0.9 | 0.00 | 0.00 | 0.00 | 86 | 1019.3 |
| 20260506044151 | 65 | 117 | 0.0 | 1.7 | 0.00 | 0.00 | 0.00 | 87 | 1019.5 |
| 20260506043649 | 64 | 257 | 0.0 | 0.9 | 0.00 | 0.00 | 0.00 | 87 | 1019.4 |
| 20260506043146 | 64 | 114 | 0.0 | 0.9 | 0.00 | 0.00 | 0.00 | 88 | 1019.1 |
| 20260506042646 | 64 | 98 | 0.0 | 0.0 | 0.00 | 0.00 | 0.00 | 88 | 1019.3 |
| 20260506042143 | 63 | 71 | 0.0 | 0.0 | 0.00 | 0.00 | 0.00 | 89 | 1019.5 |
| 20260506041641 | 63 | 270 | 0.0 | 0.0 | 0.00 | 0.00 | 0.00 | 89 | 1019.3 |
| 20260506041137 | 63 | 270 | 0.0 | 0.0 | 0.00 | 0.00 | 0.00 | 89 | 1019.3 |
| 20260506040635 | 63 | 270 | 0.0 | 0.0 | 0.00 | 0.00 | 0.00 | 89 | 1019.3 |
| 20260506040132 | 63 | 262 | 0.0 | 0.0 | 0.00 | 0.00 | 0.00 | 88 | 1019.2 |
| 20260506035629 | 63 | 262 | 0.0 | 0.9 | 0.00 | 0.00 | 0.00 | 87 | 1019.5 |
| 20260506035125 | 63 | 263 | 0.0 | 0.9 | 0.00 | 0.00 | 0.00 | 87 | 1019.3 |
| 20260506034623 | 63 | 270 | 0.0 | 0.0 | 0.00 | 0.00 | 0.00 | 85 | 1019.2 |
| 20260506034120 | 64 | 270 | 0.0 | 0.0 | 0.00 | 0.00 | 0.00 | 84 | 1019.3 |